Year,Month,Day,Hour,Minute,Value (Times are PST for temperature in C)
2023,05,15,00,00,18.90
2023,05,15,00,01,18.90
2023,05,15,00,02,18.90
2023,05,15,00,03,18.90
2023,05,15,00,04,18.90
2023,05,15,00,05,18.90
2023,05,15,00,06,18.90
2023,05,15,00,07,18.80
2023,05,15,00,08,18.80
2023,05,15,00,09,18.80
2023,05,15,00,10,18.80
2023,05,15,00,11,18.80
2023,05,15,00,12,18.80
2023,05,15,00,13,18.80
2023,05,15,00,14,18.80
2023,05,15,00,15,18.80
2023,05,15,00,16,18.80
2023,05,15,00,17,18.80
2023,05,15,00,18,18.80
2023,05,15,00,19,18.80
2023,05,15,00,20,18.80
2023,05,15,00,21,18.80
2023,05,15,00,22,18.80
2023,05,15,00,23,18.70
2023,05,15,00,24,18.70
2023,05,15,00,25,18.70
2023,05,15,00,26,18.60
2023,05,15,00,27,18.60
2023,05,15,00,28,18.60
2023,05,15,00,29,18.60
2023,05,15,00,30,18.50
2023,05,15,00,31,18.50
2023,05,15,00,32,18.40
2023,05,15,00,33,18.40
2023,05,15,00,34,18.40
2023,05,15,00,35,18.30
2023,05,15,00,36,18.30
2023,05,15,00,37,18.30
2023,05,15,00,38,18.20
2023,05,15,00,39,18.20
2023,05,15,00,40,18.20
2023,05,15,00,41,18.20
2023,05,15,00,42,18.20
2023,05,15,00,43,18.20
2023,05,15,00,44,18.20
2023,05,15,00,45,18.10
2023,05,15,00,46,18.10
2023,05,15,00,47,18.10
2023,05,15,00,48,18.10
2023,05,15,00,49,18.10
2023,05,15,00,50,18.10
2023,05,15,00,51,18.10
2023,05,15,00,52,17.90
2023,05,15,00,53,17.90
2023,05,15,00,54,17.90
2023,05,15,00,55,17.90
2023,05,15,00,56,17.90
2023,05,15,00,57,17.90
2023,05,15,00,58,17.90
2023,05,15,00,59,17.90
2023,05,15,01,00,17.90
2023,05,15,01,01,17.90
2023,05,15,01,02,17.80
2023,05,15,01,03,17.80
2023,05,15,01,04,17.80
2023,05,15,01,05,17.80
2023,05,15,01,06,17.80
2023,05,15,01,07,17.70
2023,05,15,01,08,17.70
2023,05,15,01,09,17.70
2023,05,15,01,10,17.70
2023,05,15,01,11,17.70
2023,05,15,01,12,17.70
2023,05,15,01,13,17.60
2023,05,15,01,14,17.60
2023,05,15,01,15,17.60
2023,05,15,01,16,17.60
2023,05,15,01,17,17.60
2023,05,15,01,18,17.60
2023,05,15,01,19,17.50
2023,05,15,01,20,17.50
2023,05,15,01,21,17.50
2023,05,15,01,22,17.50
2023,05,15,01,23,17.50
2023,05,15,01,24,17.50
2023,05,15,01,25,17.40
2023,05,15,01,26,17.40
2023,05,15,01,27,17.40
2023,05,15,01,28,17.40
2023,05,15,01,29,17.40
2023,05,15,01,30,17.40
2023,05,15,01,31,17.40
2023,05,15,01,32,17.30
2023,05,15,01,33,17.30
2023,05,15,01,34,17.30
2023,05,15,01,35,17.30
2023,05,15,01,36,17.30
2023,05,15,01,37,17.30
2023,05,15,01,38,17.30
2023,05,15,01,39,17.30
2023,05,15,01,40,17.30
2023,05,15,01,41,17.30
2023,05,15,01,42,17.30
2023,05,15,01,43,17.20
2023,05,15,01,44,17.20
2023,05,15,01,45,17.20
2023,05,15,01,46,17.20
2023,05,15,01,47,17.20
2023,05,15,01,48,17.10
2023,05,15,01,49,17.10
2023,05,15,01,50,17.10
2023,05,15,01,51,17.10
2023,05,15,01,52,17.10
2023,05,15,01,53,17.10
2023,05,15,01,54,17.10
2023,05,15,01,55,17.00
2023,05,15,01,56,17.00
2023,05,15,01,57,17.00
2023,05,15,01,58,17.00
2023,05,15,01,59,17.00
2023,05,15,02,00,17.00
2023,05,15,02,01,16.90
2023,05,15,02,02,16.90
2023,05,15,02,03,16.90
2023,05,15,02,04,16.90
2023,05,15,02,05,16.90
2023,05,15,02,06,16.80
2023,05,15,02,07,16.80
2023,05,15,02,08,16.80
2023,05,15,02,09,16.80
2023,05,15,02,10,16.80
2023,05,15,02,11,16.80
2023,05,15,02,12,16.80
2023,05,15,02,13,16.80
2023,05,15,02,14,16.70
2023,05,15,02,15,16.70
2023,05,15,02,16,16.70
2023,05,15,02,17,16.70
2023,05,15,02,18,16.70
2023,05,15,02,19,16.70
2023,05,15,02,20,16.70
2023,05,15,02,21,16.70
2023,05,15,02,22,16.70
2023,05,15,02,23,16.70
2023,05,15,02,24,16.70
2023,05,15,02,25,16.70
2023,05,15,02,26,16.70
2023,05,15,02,27,16.70
2023,05,15,02,28,16.70
2023,05,15,02,29,16.60
2023,05,15,02,30,16.60
2023,05,15,02,31,16.60
2023,05,15,02,32,16.60
2023,05,15,02,33,16.60
2023,05,15,02,34,16.50
2023,05,15,02,35,16.40
2023,05,15,02,36,16.40
2023,05,15,02,37,16.40
2023,05,15,02,38,16.40
2023,05,15,02,39,16.40
2023,05,15,02,40,16.40
2023,05,15,02,41,16.40
2023,05,15,02,42,16.40
2023,05,15,02,43,16.40
2023,05,15,02,44,16.40
2023,05,15,02,45,16.40
2023,05,15,02,46,16.40
2023,05,15,02,47,16.40
2023,05,15,02,48,16.40
2023,05,15,02,49,16.30
2023,05,15,02,50,16.30
2023,05,15,02,51,16.30
2023,05,15,02,52,16.30
2023,05,15,02,53,16.30
2023,05,15,02,54,16.30
2023,05,15,02,55,16.20
2023,05,15,02,56,16.20
2023,05,15,02,57,16.20
2023,05,15,02,58,16.20
2023,05,15,02,59,16.20
2023,05,15,03,00,16.10
2023,05,15,03,01,16.10
2023,05,15,03,02,16.10
2023,05,15,03,03,16.10
2023,05,15,03,04,16.10
2023,05,15,03,05,16.10
2023,05,15,03,06,16.00
2023,05,15,03,07,15.90
2023,05,15,03,08,15.90
2023,05,15,03,09,15.90
2023,05,15,03,10,15.80
2023,05,15,03,11,15.80
2023,05,15,03,12,15.80
2023,05,15,03,13,15.80
2023,05,15,03,14,15.80
2023,05,15,03,15,15.80
2023,05,15,03,16,15.80
2023,05,15,03,17,15.80
2023,05,15,03,18,15.80
2023,05,15,03,19,15.80
2023,05,15,03,20,15.80
2023,05,15,03,21,15.70
2023,05,15,03,22,15.70
2023,05,15,03,23,15.70
2023,05,15,03,24,15.70
2023,05,15,03,25,15.70
2023,05,15,03,26,15.80
2023,05,15,03,27,15.80
2023,05,15,03,28,15.80
2023,05,15,03,29,15.80
2023,05,15,03,30,15.70
2023,05,15,03,31,15.80
2023,05,15,03,32,15.80
2023,05,15,03,33,15.80
2023,05,15,03,34,15.80
2023,05,15,03,35,15.80
2023,05,15,03,36,15.80
2023,05,15,03,37,15.80
2023,05,15,03,38,15.80
2023,05,15,03,39,15.80
2023,05,15,03,40,15.80
2023,05,15,03,41,15.80
2023,05,15,03,42,15.80
2023,05,15,03,43,15.80
2023,05,15,03,44,15.80
2023,05,15,03,45,15.80
2023,05,15,03,46,15.80
2023,05,15,03,47,15.80
2023,05,15,03,48,15.80
2023,05,15,03,49,15.80
2023,05,15,03,50,15.80
2023,05,15,03,51,15.80
2023,05,15,03,52,15.90
2023,05,15,03,53,15.90
2023,05,15,03,54,16.00
2023,05,15,03,55,16.10
2023,05,15,03,56,16.10
2023,05,15,03,57,16.10
2023,05,15,03,58,16.10
2023,05,15,03,59,16.10
2023,05,15,04,00,16.20
2023,05,15,04,01,16.20
2023,05,15,04,02,16.20
2023,05,15,04,03,16.20
2023,05,15,04,04,16.20
2023,05,15,04,05,16.20
2023,05,15,04,06,16.20
2023,05,15,04,07,16.20
2023,05,15,04,08,16.20
2023,05,15,04,09,16.20
2023,05,15,04,10,16.20
2023,05,15,04,11,16.20
2023,05,15,04,12,16.20
2023,05,15,04,13,16.10
2023,05,15,04,14,16.10
2023,05,15,04,15,16.10
2023,05,15,04,16,16.10
2023,05,15,04,17,16.10
2023,05,15,04,18,16.10
2023,05,15,04,19,16.10
2023,05,15,04,20,16.10
2023,05,15,04,21,16.10
2023,05,15,04,22,16.10
2023,05,15,04,23,16.10
2023,05,15,04,24,16.20
2023,05,15,04,25,16.20
2023,05,15,04,26,16.20
2023,05,15,04,27,16.20
2023,05,15,04,28,16.20
2023,05,15,04,29,16.30
2023,05,15,04,30,16.30
2023,05,15,04,31,16.30
2023,05,15,04,32,16.30
2023,05,15,04,33,16.40
2023,05,15,04,34,16.40
2023,05,15,04,35,16.40
2023,05,15,04,36,16.40
2023,05,15,04,37,16.40
2023,05,15,04,38,16.40
2023,05,15,04,39,16.40
2023,05,15,04,40,16.40
2023,05,15,04,41,16.40
2023,05,15,04,42,16.40
2023,05,15,04,43,16.30
2023,05,15,04,44,16.30
2023,05,15,04,45,16.30
2023,05,15,04,46,16.20
2023,05,15,04,47,16.20
2023,05,15,04,48,16.20
2023,05,15,04,49,16.20
2023,05,15,04,50,16.10
2023,05,15,04,51,16.10
2023,05,15,04,52,16.10
2023,05,15,04,53,16.10
2023,05,15,04,54,16.00
2023,05,15,04,55,15.90
2023,05,15,04,56,15.90
2023,05,15,04,57,15.80
2023,05,15,04,58,15.80
2023,05,15,04,59,15.80
2023,05,15,05,00,15.80
2023,05,15,05,01,15.80
2023,05,15,05,02,15.80
2023,05,15,05,03,15.80
2023,05,15,05,04,15.80
2023,05,15,05,05,15.80
2023,05,15,05,06,15.70
2023,05,15,05,07,15.70
2023,05,15,05,08,15.70
2023,05,15,05,09,15.70
2023,05,15,05,10,15.60
2023,05,15,05,11,15.60
2023,05,15,05,12,15.60
2023,05,15,05,13,15.60
2023,05,15,05,14,15.60
2023,05,15,05,15,15.60
2023,05,15,05,16,15.60
2023,05,15,05,17,15.60
2023,05,15,05,18,15.60
2023,05,15,05,19,15.60
2023,05,15,05,20,15.70
2023,05,15,05,21,15.70
2023,05,15,05,22,15.70
2023,05,15,05,23,15.70
2023,05,15,05,24,15.70
2023,05,15,05,25,15.70
2023,05,15,05,26,15.70
2023,05,15,05,27,15.70
2023,05,15,05,28,15.70
2023,05,15,05,29,15.60
2023,05,15,05,30,15.60
2023,05,15,05,31,15.60
2023,05,15,05,32,15.50
2023,05,15,05,33,15.50
2023,05,15,05,34,15.50
2023,05,15,05,35,15.40
2023,05,15,05,36,15.40
2023,05,15,05,37,15.40
2023,05,15,05,38,15.30
2023,05,15,05,39,15.30
2023,05,15,05,40,15.30
2023,05,15,05,41,15.30
2023,05,15,05,42,15.30
2023,05,15,05,43,15.30
2023,05,15,05,44,15.30
2023,05,15,05,45,15.30
2023,05,15,05,46,15.30
2023,05,15,05,47,15.30
2023,05,15,05,48,15.20
2023,05,15,05,49,15.20
2023,05,15,05,50,15.20
2023,05,15,05,51,15.20
2023,05,15,05,52,15.20
2023,05,15,05,53,15.20
2023,05,15,05,54,15.20
2023,05,15,05,55,15.20
2023,05,15,05,56,15.20
2023,05,15,05,57,15.20
2023,05,15,05,58,15.20
2023,05,15,05,59,15.20
2023,05,15,06,00,15.20
2023,05,15,06,01,15.20
2023,05,15,06,02,15.20
2023,05,15,06,03,15.20
2023,05,15,06,04,15.20
2023,05,15,06,05,15.20
2023,05,15,06,06,15.20
2023,05,15,06,07,15.20
2023,05,15,06,08,15.20
2023,05,15,06,09,15.20
2023,05,15,06,10,15.20
2023,05,15,06,11,15.30
2023,05,15,06,12,15.30
2023,05,15,06,13,15.30
2023,05,15,06,14,15.30
2023,05,15,06,15,15.30
2023,05,15,06,16,15.30
2023,05,15,06,17,15.30
2023,05,15,06,18,15.30
2023,05,15,06,19,15.30
2023,05,15,06,20,15.30
2023,05,15,06,21,15.30
2023,05,15,06,22,15.30
2023,05,15,06,23,15.40
2023,05,15,06,24,15.40
2023,05,15,06,25,15.50
2023,05,15,06,26,15.50
2023,05,15,06,27,15.50
2023,05,15,06,28,15.60
2023,05,15,06,29,15.60
2023,05,15,06,30,15.70
2023,05,15,06,31,15.70
2023,05,15,06,32,15.70
2023,05,15,06,33,15.80
2023,05,15,06,34,15.80
2023,05,15,06,35,15.80
2023,05,15,06,36,15.80
2023,05,15,06,37,15.80
2023,05,15,06,38,15.80
2023,05,15,06,39,15.90
2023,05,15,06,40,15.90
2023,05,15,06,41,15.90
2023,05,15,06,42,16.00
2023,05,15,06,43,16.10
2023,05,15,06,44,16.10
2023,05,15,06,45,16.10
2023,05,15,06,46,16.10
2023,05,15,06,47,16.10
2023,05,15,06,48,16.10
2023,05,15,06,49,16.20
2023,05,15,06,50,16.20
2023,05,15,06,51,16.30
2023,05,15,06,52,16.30
2023,05,15,06,53,16.30
2023,05,15,06,54,16.40
2023,05,15,06,55,16.40
2023,05,15,06,56,16.50
2023,05,15,06,57,16.60
2023,05,15,06,58,16.70
2023,05,15,06,59,16.80
2023,05,15,07,00,16.90
2023,05,15,07,01,17.00
2023,05,15,07,02,17.10
2023,05,15,07,03,17.20
2023,05,15,07,04,17.30
2023,05,15,07,05,17.50
2023,05,15,07,06,17.60
2023,05,15,07,07,17.70
2023,05,15,07,08,17.80
2023,05,15,07,09,17.90
2023,05,15,07,10,17.90
2023,05,15,07,11,18.10
2023,05,15,07,12,18.10
2023,05,15,07,13,18.20
2023,05,15,07,14,18.30
2023,05,15,07,15,18.30
2023,05,15,07,16,18.40
2023,05,15,07,17,18.50
2023,05,15,07,18,18.50
2023,05,15,07,19,18.60
2023,05,15,07,20,18.70
2023,05,15,07,21,18.70
2023,05,15,07,22,18.80
2023,05,15,07,23,18.90
2023,05,15,07,24,18.90
2023,05,15,07,25,19.00
2023,05,15,07,26,19.10
2023,05,15,07,27,19.10
2023,05,15,07,28,19.10
2023,05,15,07,29,19.20
2023,05,15,07,30,19.30
2023,05,15,07,31,19.40
2023,05,15,07,32,19.40
2023,05,15,07,33,19.50
2023,05,15,07,34,19.50
2023,05,15,07,35,19.60
2023,05,15,07,36,19.70
2023,05,15,07,37,19.80
2023,05,15,07,38,19.80
2023,05,15,07,39,19.90
2023,05,15,07,40,19.90
2023,05,15,07,41,20.00
2023,05,15,07,42,20.10
2023,05,15,07,43,20.20
2023,05,15,07,44,20.20
2023,05,15,07,45,20.30
2023,05,15,07,46,20.40
2023,05,15,07,47,20.40
2023,05,15,07,48,20.50
2023,05,15,07,49,20.60
2023,05,15,07,50,20.70
2023,05,15,07,51,20.90
2023,05,15,07,52,21.20
2023,05,15,07,53,21.50
2023,05,15,07,54,21.80
2023,05,15,07,55,22.10
2023,05,15,07,56,22.50
2023,05,15,07,57,22.80
2023,05,15,07,58,23.10
2023,05,15,07,59,23.30
2023,05,15,08,00,23.50
2023,05,15,08,01,23.60
2023,05,15,08,02,23.80
2023,05,15,08,03,23.90
2023,05,15,08,04,24.00
2023,05,15,08,05,24.10
2023,05,15,08,06,24.20
2023,05,15,08,07,24.30
2023,05,15,08,08,24.30
2023,05,15,08,09,24.40
2023,05,15,08,10,24.50
2023,05,15,08,11,24.50
2023,05,15,08,12,24.60
2023,05,15,08,13,24.60
2023,05,15,08,14,24.70
2023,05,15,08,15,24.70
2023,05,15,08,16,24.80
2023,05,15,08,17,24.80
2023,05,15,08,18,24.90
2023,05,15,08,19,24.90
2023,05,15,08,20,25.00
2023,05,15,08,21,25.00
2023,05,15,08,22,25.10
2023,05,15,08,23,25.20
2023,05,15,08,24,25.30
2023,05,15,08,25,25.30
2023,05,15,08,26,25.40
2023,05,15,08,27,25.50
2023,05,15,08,28,25.50
2023,05,15,08,29,25.50
2023,05,15,08,30,25.50
2023,05,15,08,31,25.60
2023,05,15,08,32,25.60
2023,05,15,08,33,25.70
2023,05,15,08,34,25.80
2023,05,15,08,35,25.80
2023,05,15,08,36,25.90
2023,05,15,08,37,25.90
2023,05,15,08,38,26.00
2023,05,15,08,39,26.10
2023,05,15,08,40,26.10
2023,05,15,08,41,26.20
2023,05,15,08,42,26.20
2023,05,15,08,43,26.20
2023,05,15,08,44,26.20
2023,05,15,08,45,26.30
2023,05,15,08,46,26.30
2023,05,15,08,47,26.20
2023,05,15,08,48,26.10
2023,05,15,08,49,26.10
2023,05,15,08,50,26.10
2023,05,15,08,51,26.20
2023,05,15,08,52,26.20
2023,05,15,08,53,26.20
2023,05,15,08,54,26.30
2023,05,15,08,55,26.30
2023,05,15,08,56,26.40
2023,05,15,08,57,26.40
2023,05,15,08,58,26.40
2023,05,15,08,59,26.40
2023,05,15,09,00,26.30
2023,05,15,09,01,26.30
2023,05,15,09,02,26.30
2023,05,15,09,03,26.30
2023,05,15,09,04,26.30
2023,05,15,09,05,26.20
2023,05,15,09,06,26.20
2023,05,15,09,07,26.30
2023,05,15,09,08,26.30
2023,05,15,09,09,26.40
2023,05,15,09,10,26.40
2023,05,15,09,11,26.50
2023,05,15,09,12,26.60
2023,05,15,09,13,26.60
2023,05,15,09,14,26.60
2023,05,15,09,15,26.70
2023,05,15,09,16,26.70
2023,05,15,09,17,26.70
2023,05,15,09,18,26.70
2023,05,15,09,19,26.70
2023,05,15,09,20,26.70
2023,05,15,09,21,26.80
2023,05,15,09,22,26.80
2023,05,15,09,23,26.80
2023,05,15,09,24,26.90
2023,05,15,09,25,27.00
2023,05,15,09,26,27.10
2023,05,15,09,27,27.10
2023,05,15,09,28,27.20
2023,05,15,09,29,27.20
2023,05,15,09,30,27.20
2023,05,15,09,31,27.20
2023,05,15,09,32,27.30
2023,05,15,09,33,27.30
2023,05,15,09,34,27.30
2023,05,15,09,35,27.30
2023,05,15,09,36,27.30
2023,05,15,09,37,27.30
2023,05,15,09,38,27.30
2023,05,15,09,39,27.30
2023,05,15,09,40,27.30
2023,05,15,09,41,27.30
2023,05,15,09,42,27.30
2023,05,15,09,43,27.30
2023,05,15,09,44,27.30
2023,05,15,09,45,27.30
2023,05,15,09,46,27.30
2023,05,15,09,47,27.30
2023,05,15,09,48,27.30
2023,05,15,09,49,27.40
2023,05,15,09,50,27.40
2023,05,15,09,51,27.40
2023,05,15,09,52,27.50
2023,05,15,09,53,27.50
2023,05,15,09,54,27.60
2023,05,15,09,55,27.60
2023,05,15,09,56,27.80
2023,05,15,09,57,27.80
2023,05,15,09,58,27.90
2023,05,15,09,59,27.90
2023,05,15,10,00,27.90
2023,05,15,10,01,27.90
2023,05,15,10,02,27.90
2023,05,15,10,03,28.00
2023,05,15,10,04,28.10
2023,05,15,10,05,28.20
2023,05,15,10,06,28.20
2023,05,15,10,07,28.20
2023,05,15,10,08,28.10
2023,05,15,10,09,28.10
2023,05,15,10,10,28.20
2023,05,15,10,11,28.20
2023,05,15,10,12,28.20
2023,05,15,10,13,28.30
2023,05,15,10,14,28.30
2023,05,15,10,15,28.30
2023,05,15,10,16,28.40
2023,05,15,10,17,28.50
2023,05,15,10,18,28.60
2023,05,15,10,19,28.60
2023,05,15,10,20,28.50
2023,05,15,10,21,28.60
2023,05,15,10,22,28.60
2023,05,15,10,23,28.60
2023,05,15,10,24,28.50
2023,05,15,10,25,28.40
2023,05,15,10,26,28.50
2023,05,15,10,27,28.60
2023,05,15,10,28,28.50
2023,05,15,10,29,28.40
2023,05,15,10,30,28.30
2023,05,15,10,31,28.30
2023,05,15,10,32,28.30
2023,05,15,10,33,28.20
2023,05,15,10,34,28.20
2023,05,15,10,35,28.20
2023,05,15,10,36,28.30
2023,05,15,10,37,28.30
2023,05,15,10,38,28.30
2023,05,15,10,39,28.20
2023,05,15,10,40,28.00
2023,05,15,10,41,28.00
2023,05,15,10,42,28.10
2023,05,15,10,43,28.10
2023,05,15,10,44,28.10
2023,05,15,10,45,28.20
2023,05,15,10,46,28.30
2023,05,15,10,47,28.30
2023,05,15,10,48,28.40
2023,05,15,10,49,28.40
2023,05,15,10,50,28.40
2023,05,15,10,51,28.50
2023,05,15,10,52,28.60
2023,05,15,10,53,28.60
2023,05,15,10,54,28.70
2023,05,15,10,55,28.70
2023,05,15,10,56,28.70
2023,05,15,10,57,28.70
2023,05,15,10,58,28.70
2023,05,15,10,59,28.80
2023,05,15,11,00,28.90
2023,05,15,11,01,29.00
2023,05,15,11,02,29.10
2023,05,15,11,03,29.20
2023,05,15,11,04,29.30
2023,05,15,11,05,29.30
2023,05,15,11,06,29.40
2023,05,15,11,07,29.50
2023,05,15,11,08,29.60
2023,05,15,11,09,29.60
2023,05,15,11,10,29.70
2023,05,15,11,11,29.70
2023,05,15,11,12,29.70
2023,05,15,11,13,29.70
2023,05,15,11,14,29.80
2023,05,15,11,15,29.80
2023,05,15,11,16,29.90
2023,05,15,11,17,29.90
2023,05,15,11,18,29.90
2023,05,15,11,19,29.90
2023,05,15,11,20,29.90
2023,05,15,11,21,30.10
2023,05,15,11,22,30.20
2023,05,15,11,23,30.20
2023,05,15,11,24,30.30
2023,05,15,11,25,30.40
2023,05,15,11,26,30.50
2023,05,15,11,27,30.60
2023,05,15,11,28,30.60
2023,05,15,11,29,30.30
2023,05,15,11,30,30.10
2023,05,15,11,31,30.10
2023,05,15,11,32,29.80
2023,05,15,11,33,29.60
2023,05,15,11,34,29.50
2023,05,15,11,35,29.30
2023,05,15,11,36,29.30
2023,05,15,11,37,29.30
2023,05,15,11,38,29.20
2023,05,15,11,39,29.20
2023,05,15,11,40,29.20
2023,05,15,11,41,29.20
2023,05,15,11,42,29.30
2023,05,15,11,43,29.20
2023,05,15,11,44,29.10
2023,05,15,11,45,28.90
2023,05,15,11,46,28.90
2023,05,15,11,47,28.70
2023,05,15,11,48,28.70
2023,05,15,11,49,28.80
2023,05,15,11,50,28.90
2023,05,15,11,51,28.90
2023,05,15,11,52,28.90
2023,05,15,11,53,28.80
2023,05,15,11,54,28.70
2023,05,15,11,55,28.70
2023,05,15,11,56,28.80
2023,05,15,11,57,28.80
2023,05,15,11,58,28.80
2023,05,15,11,59,28.80
2023,05,15,12,00,28.80
2023,05,15,12,01,29.00
2023,05,15,12,02,29.10
2023,05,15,12,03,29.20
2023,05,15,12,04,29.10
2023,05,15,12,05,29.00
2023,05,15,12,06,28.90
2023,05,15,12,07,28.70
2023,05,15,12,08,28.30
2023,05,15,12,09,28.00
2023,05,15,12,10,27.90
2023,05,15,12,11,28.00
2023,05,15,12,12,27.90
2023,05,15,12,13,27.70
2023,05,15,12,14,27.70
2023,05,15,12,15,27.80
2023,05,15,12,16,28.00
2023,05,15,12,17,28.20
2023,05,15,12,18,28.40
2023,05,15,12,19,28.50
2023,05,15,12,20,28.60
2023,05,15,12,21,28.70
2023,05,15,12,22,28.70
2023,05,15,12,23,28.80
2023,05,15,12,24,29.00
2023,05,15,12,25,29.10
2023,05,15,12,26,29.00
2023,05,15,12,27,28.90
2023,05,15,12,28,28.70
2023,05,15,12,29,28.60
2023,05,15,12,30,28.60
2023,05,15,12,31,28.60
2023,05,15,12,32,28.60
2023,05,15,12,33,28.30
2023,05,15,12,34,27.90
2023,05,15,12,35,27.60
2023,05,15,12,36,27.40
2023,05,15,12,37,27.30
2023,05,15,12,38,27.30
2023,05,15,12,39,27.50
2023,05,15,12,40,27.60
2023,05,15,12,41,27.60
2023,05,15,12,42,27.70
2023,05,15,12,43,27.60
2023,05,15,12,44,27.40
2023,05,15,12,45,27.30
2023,05,15,12,46,27.10
2023,05,15,12,47,26.90
2023,05,15,12,48,26.90
2023,05,15,12,49,26.90
2023,05,15,12,50,27.00
2023,05,15,12,51,26.90
2023,05,15,12,52,26.60
2023,05,15,12,53,26.40
2023,05,15,12,54,26.40
2023,05,15,12,55,26.40
2023,05,15,12,56,26.50
2023,05,15,12,57,26.40
2023,05,15,12,58,26.40
2023,05,15,12,59,26.40
2023,05,15,13,00,26.30
2023,05,15,13,01,26.20
2023,05,15,13,02,26.20
2023,05,15,13,03,26.10
2023,05,15,13,04,26.10
2023,05,15,13,05,26.30
2023,05,15,13,06,26.30
2023,05,15,13,07,26.40
2023,05,15,13,08,26.30
2023,05,15,13,09,26.30
2023,05,15,13,10,26.30
2023,05,15,13,11,26.40
2023,05,15,13,12,26.40
2023,05,15,13,13,26.30
2023,05,15,13,14,26.00
2023,05,15,13,15,25.90
2023,05,15,13,16,25.80
2023,05,15,13,17,25.80
2023,05,15,13,18,25.90
2023,05,15,13,19,26.00
2023,05,15,13,20,26.20
2023,05,15,13,21,26.40
2023,05,15,13,22,26.60
2023,05,15,13,23,26.70
2023,05,15,13,24,26.80
2023,05,15,13,25,26.80
2023,05,15,13,26,26.80
2023,05,15,13,27,26.90
2023,05,15,13,28,27.10
2023,05,15,13,29,27.10
2023,05,15,13,30,27.00
2023,05,15,13,31,27.00
2023,05,15,13,32,27.20
2023,05,15,13,33,27.20
2023,05,15,13,34,27.30
2023,05,15,13,35,27.40
2023,05,15,13,36,27.60
2023,05,15,13,37,27.70
2023,05,15,13,38,27.80
2023,05,15,13,39,27.90
2023,05,15,13,40,28.10
2023,05,15,13,41,28.10
2023,05,15,13,42,28.10
2023,05,15,13,43,28.10
2023,05,15,13,44,28.10
2023,05,15,13,45,28.20
2023,05,15,13,46,28.40
2023,05,15,13,47,28.60
2023,05,15,13,48,28.80
2023,05,15,13,49,28.90
2023,05,15,13,50,29.10
2023,05,15,13,51,29.30
2023,05,15,13,52,29.50
2023,05,15,13,53,29.60
2023,05,15,13,54,29.70
2023,05,15,13,55,29.80
2023,05,15,13,56,29.90
2023,05,15,13,57,30.10
2023,05,15,13,58,30.30
2023,05,15,13,59,30.40
2023,05,15,14,00,30.40
2023,05,15,14,01,30.50
2023,05,15,14,02,30.60
2023,05,15,14,03,30.70
2023,05,15,14,04,30.80
2023,05,15,14,05,30.90
2023,05,15,14,06,31.00
2023,05,15,14,07,31.00
2023,05,15,14,08,31.00
2023,05,15,14,09,31.00
2023,05,15,14,10,30.90
2023,05,15,14,11,30.90
2023,05,15,14,12,30.90
2023,05,15,14,13,31.00
2023,05,15,14,14,31.10
2023,05,15,14,15,31.20
2023,05,15,14,16,31.30
2023,05,15,14,17,31.40
2023,05,15,14,18,31.50
2023,05,15,14,19,31.60
2023,05,15,14,20,31.60
2023,05,15,14,21,31.60
2023,05,15,14,22,31.70
2023,05,15,14,23,31.70
2023,05,15,14,24,31.80
2023,05,15,14,25,31.90
2023,05,15,14,26,31.90
2023,05,15,14,27,32.10
2023,05,15,14,28,32.10
2023,05,15,14,29,32.10
2023,05,15,14,30,32.10
2023,05,15,14,31,32.20
2023,05,15,14,32,32.30
2023,05,15,14,33,32.40
2023,05,15,14,34,32.50
2023,05,15,14,35,32.60
2023,05,15,14,36,32.80
2023,05,15,14,37,32.80
2023,05,15,14,38,32.80
2023,05,15,14,39,32.80
2023,05,15,14,40,32.90
2023,05,15,14,41,32.80
2023,05,15,14,42,32.70
2023,05,15,14,43,32.50
2023,05,15,14,44,32.50
2023,05,15,14,45,32.50
2023,05,15,14,46,32.50
2023,05,15,14,47,32.40
2023,05,15,14,48,32.40
2023,05,15,14,49,32.40
2023,05,15,14,50,32.50
2023,05,15,14,51,32.60
2023,05,15,14,52,32.60
2023,05,15,14,53,32.70
2023,05,15,14,54,32.60
2023,05,15,14,55,32.50
2023,05,15,14,56,32.30
2023,05,15,14,57,32.30
2023,05,15,14,58,32.20
2023,05,15,14,59,32.20
2023,05,15,15,00,32.30
2023,05,15,15,01,32.40
2023,05,15,15,02,32.40
2023,05,15,15,03,32.50
2023,05,15,15,04,32.60
2023,05,15,15,05,32.60
2023,05,15,15,06,32.80
2023,05,15,15,07,32.80
2023,05,15,15,08,32.80
2023,05,15,15,09,32.80
2023,05,15,15,10,32.80
2023,05,15,15,11,32.80
2023,05,15,15,12,32.70
2023,05,15,15,13,32.60
2023,05,15,15,14,32.70
2023,05,15,15,15,32.80
2023,05,15,15,16,32.80
2023,05,15,15,17,32.80
2023,05,15,15,18,32.80
2023,05,15,15,19,32.70
2023,05,15,15,20,32.70
2023,05,15,15,21,32.80
2023,05,15,15,22,32.80
2023,05,15,15,23,32.70
2023,05,15,15,24,32.60
2023,05,15,15,25,32.40
2023,05,15,15,26,32.30
2023,05,15,15,27,32.30
2023,05,15,15,28,32.20
2023,05,15,15,29,32.20
2023,05,15,15,30,32.30
2023,05,15,15,31,32.30
2023,05,15,15,32,32.30
2023,05,15,15,33,32.40
2023,05,15,15,34,32.40
2023,05,15,15,35,32.30
2023,05,15,15,36,32.20
2023,05,15,15,37,32.20
2023,05,15,15,38,32.20
2023,05,15,15,39,32.20
2023,05,15,15,40,32.10
2023,05,15,15,41,32.10
2023,05,15,15,42,32.10
2023,05,15,15,43,31.90
2023,05,15,15,44,31.60
2023,05,15,15,45,31.40
2023,05,15,15,46,31.20
2023,05,15,15,47,31.20
2023,05,15,15,48,31.10
2023,05,15,15,49,30.90
2023,05,15,15,50,30.80
2023,05,15,15,51,30.60
2023,05,15,15,52,30.30
2023,05,15,15,53,30.20
2023,05,15,15,54,30.20
2023,05,15,15,55,30.20
2023,05,15,15,56,30.20
2023,05,15,15,57,30.10
2023,05,15,15,58,30.10
2023,05,15,15,59,30.10
2023,05,15,16,00,30.20
2023,05,15,16,01,30.30
2023,05,15,16,02,30.10
2023,05,15,16,03,30.10
2023,05,15,16,04,30.00
2023,05,15,16,05,29.90
2023,05,15,16,06,29.90
2023,05,15,16,07,29.80
2023,05,15,16,08,29.60
2023,05,15,16,09,29.40
2023,05,15,16,10,29.40
2023,05,15,16,11,29.40
2023,05,15,16,12,29.30
2023,05,15,16,13,29.20
2023,05,15,16,14,29.20
2023,05,15,16,15,29.20
2023,05,15,16,16,29.20
2023,05,15,16,17,29.20
2023,05,15,16,18,29.30
2023,05,15,16,19,29.50
2023,05,15,16,20,29.60
2023,05,15,16,21,29.70
2023,05,15,16,22,29.70
2023,05,15,16,23,29.70
2023,05,15,16,24,29.60
2023,05,15,16,25,29.60
2023,05,15,16,26,29.60
2023,05,15,16,27,29.80
2023,05,15,16,28,29.80
2023,05,15,16,29,29.90
2023,05,15,16,30,30.00
2023,05,15,16,31,30.10
2023,05,15,16,32,30.10
2023,05,15,16,33,30.20
2023,05,15,16,34,30.20
2023,05,15,16,35,30.20
2023,05,15,16,36,30.30
2023,05,15,16,37,30.30
2023,05,15,16,38,30.30
2023,05,15,16,39,30.20
2023,05,15,16,40,30.20
2023,05,15,16,41,30.20
2023,05,15,16,42,30.30
2023,05,15,16,43,30.50
2023,05,15,16,44,30.60
2023,05,15,16,45,30.70
2023,05,15,16,46,30.70
2023,05,15,16,47,30.80
2023,05,15,16,48,30.90
2023,05,15,16,49,31.00
2023,05,15,16,50,31.10
2023,05,15,16,51,31.10
2023,05,15,16,52,31.20
2023,05,15,16,53,31.20
2023,05,15,16,54,31.30
2023,05,15,16,55,31.40
2023,05,15,16,56,31.40
2023,05,15,16,57,31.50
2023,05,15,16,58,31.60
2023,05,15,16,59,31.60
2023,05,15,17,00,31.70
2023,05,15,17,01,31.70
2023,05,15,17,02,31.70
2023,05,15,17,03,31.70
2023,05,15,17,04,31.80
2023,05,15,17,05,31.80
2023,05,15,17,06,31.70
2023,05,15,17,07,31.50
2023,05,15,17,08,31.40
2023,05,15,17,09,31.20
2023,05,15,17,10,31.20
2023,05,15,17,11,31.10
2023,05,15,17,12,31.20
2023,05,15,17,13,31.10
2023,05,15,17,14,31.00
2023,05,15,17,15,30.90
2023,05,15,17,16,30.90
2023,05,15,17,17,30.90
2023,05,15,17,18,30.90
2023,05,15,17,19,30.80